Time,TemperatureF,DewpointF,PressureIn,WindDirection,WindDirectionDegrees,WindSpeedMPH,WindSpeedGustMPH,Humidity,HourlyPrecipIn,Conditions,Clouds,dailyrainin,SoftwareType,DateUTC
2013-08-04 00:02:00,67.2,62.0,29.99,WSW,258,0.0,1.0,84,0.00,,,0.00,weatherlink.com 1.10,2013-08-04 04:02:00,
2013-08-04 00:17:00,66.7,62.0,29.99,West,271,0.0,2.0,84,0.00,,,0.00,weatherlink.com 1.10,2013-08-04 04:17:00,
2013-08-04 00:32:00,66.4,62.0,30.00,North,357,0.0,1.0,84,0.00,,,0.00,weatherlink.com 1.10,2013-08-04 04:32:00,
2013-08-04 00:47:00,66.2,61.0,30.00,NE,41,0.0,2.0,82,0.00,,,0.00,weatherlink.com 1.10,2013-08-04 04:47:00,
2013-08-04 01:02:00,65.6,60.0,30.00,NNW,330,0.0,1.0,82,0.00,,,0.00,weatherlink.com 1.10,2013-08-04 05:02:00,
2013-08-04 01:17:00,65.4,59.0,30.01,NNW,341,0.0,1.0,81,0.00,,,0.00,weatherlink.com 1.10,2013-08-04 05:17:00,
2013-08-04 01:32:00,64.9,59.0,30.00,NNW,345,0.0,1.0,81,0.00,,,0.00,weatherlink.com 1.10,2013-08-04 05:32:00,
2013-08-04 01:47:00,64.3,58.0,30.00,NW,319,0.0,1.0,81,0.00,,,0.00,weatherlink.com 1.10,2013-08-04 05:47:00,
2013-08-04 02:02:00,64.0,58.0,30.01,North,352,0.0,1.0,81,0.00,,,0.00,weatherlink.com 1.10,2013-08-04 06:02:00,
2013-08-04 02:17:00,63.6,58.0,30.01,NNW,348,0.0,1.0,81,0.00,,,0.00,weatherlink.com 1.10,2013-08-04 06:17:00,
2013-08-04 02:32:00,63.3,57.0,30.01,West,274,0.0,1.0,80,0.00,,,0.00,weatherlink.com 1.10,2013-08-04 06:32:00,
2013-08-04 02:47:00,63.2,57.0,30.01,NNW,348,0.0,1.0,79,0.00,,,0.00,weatherlink.com 1.10,2013-08-04 06:47:00,
2013-08-04 03:02:00,63.1,56.0,30.01,ENE,77,0.0,1.0,77,0.00,,,0.00,weatherlink.com 1.10,2013-08-04 07:02:00,
2013-08-04 03:17:00,63.1,56.0,30.02,North,354,0.0,1.0,77,0.00,,,0.00,weatherlink.com 1.10,2013-08-04 07:17:00,
2013-08-04 03:32:00,63.1,56.0,30.02,WSW,252,1.0,2.0,77,0.00,,,0.00,weatherlink.com 1.10,2013-08-04 07:32:00,
2013-08-04 03:47:00,63.1,56.0,30.02,West,263,0.0,1.0,77,0.00,,,0.00,weatherlink.com 1.10,2013-08-04 07:47:00,
2013-08-04 04:02:00,63.0,55.0,30.02,West,277,0.0,1.0,75,0.00,,,0.00,weatherlink.com 1.10,2013-08-04 08:02:00,
2013-08-04 04:17:00,62.9,55.0,30.02,NW,321,0.0,1.0,74,0.00,,,0.00,weatherlink.com 1.10,2013-08-04 08:17:00,
2013-08-04 04:32:00,62.4,54.0,30.02,NW,312,0.0,0.0,74,0.00,,,0.00,weatherlink.com 1.10,2013-08-04 08:32:00,
2013-08-04 04:48:00,61.6,54.0,30.02,West,276,0.0,1.0,77,0.00,,,0.00,weatherlink.com 1.10,2013-08-04 08:48:00,
2013-08-04 05:03:00,61.6,54.0,30.02,NNE,15,0.0,2.0,76,0.00,,,0.00,weatherlink.com 1.10,2013-08-04 09:03:00,
2013-08-04 05:18:00,61.3,54.0,30.02,NW,311,0.0,1.0,76,0.00,,,0.00,weatherlink.com 1.10,2013-08-04 09:18:00,
2013-08-04 05:33:00,60.5,54.0,30.02,NW,315,0.0,1.0,78,0.00,,,0.00,weatherlink.com 1.10,2013-08-04 09:33:00,
2013-08-04 05:48:00,60.2,53.0,30.02,NW,304,0.0,1.0,78,0.00,,,0.00,weatherlink.com 1.10,2013-08-04 09:48:00,
2013-08-04 06:03:00,60.4,53.0,30.03,NE,36,0.0,1.0,77,0.00,,,0.00,weatherlink.com 1.10,2013-08-04 10:03:00,
2013-08-04 06:17:00,60.3,53.0,30.03,NE,38,0.0,2.0,77,0.00,,,0.00,weatherlink.com 1.10,2013-08-04 10:17:00,
2013-08-04 06:33:00,60.4,53.0,30.04,WNW,285,2.0,2.0,77,0.00,,,0.00,weatherlink.com 1.10,2013-08-04 10:33:00,
2013-08-04 06:48:00,60.1,53.0,30.05,NNW,340,0.0,4.0,78,0.00,,,0.00,weatherlink.com 1.10,2013-08-04 10:48:00,
2013-08-04 07:03:00,59.8,53.0,30.06,NW,321,0.0,1.0,79,0.00,,,0.00,weatherlink.com 1.10,2013-08-04 11:03:00,
2013-08-04 07:18:00,59.2,53.0,30.06,WNW,288,0.0,1.0,81,0.00,,,0.00,weatherlink.com 1.10,2013-08-04 11:18:00,
2013-08-04 07:33:00,60.1,54.0,30.07,WNW,295,0.0,1.0,80,0.00,,,0.00,weatherlink.com 1.10,2013-08-04 11:33:00,
2013-08-04 07:48:00,62.8,56.0,30.07,NE,44,0.0,1.0,77,0.00,,,0.00,weatherlink.com 1.10,2013-08-04 11:48:00,
2013-08-04 08:03:00,63.8,56.0,30.08,West,271,0.0,1.0,75,0.00,,,0.00,weatherlink.com 1.10,2013-08-04 12:03:00,
2013-08-04 08:18:00,64.8,56.0,30.08,SW,235,1.0,1.0,74,0.00,,,0.00,weatherlink.com 1.10,2013-08-04 12:18:00,
2013-08-04 08:33:00,66.5,56.0,30.08,ENE,72,2.0,5.0,69,0.00,,,0.00,weatherlink.com 1.10,2013-08-04 12:33:00,
2013-08-04 08:48:00,66.2,57.0,30.08,ENE,60,2.0,3.0,71,0.00,,,0.00,weatherlink.com 1.10,2013-08-04 12:48:00,
2013-08-04 09:03:00,67.3,58.0,30.08,East,98,1.0,3.0,71,0.00,,,0.00,weatherlink.com 1.10,2013-08-04 13:03:00,
2013-08-04 09:18:00,67.8,58.0,30.08,ESE,115,1.0,4.0,71,0.00,,,0.00,weatherlink.com 1.10,2013-08-04 13:18:00,
2013-08-04 09:33:00,68.1,58.0,30.08,SE,127,3.0,6.0,71,0.00,,,0.00,weatherlink.com 1.10,2013-08-04 13:33:00,
2013-08-04 09:48:00,68.4,59.0,30.08,ENE,76,3.0,6.0,71,0.00,,,0.00,weatherlink.com 1.10,2013-08-04 13:48:00,
2013-08-04 10:03:00,69.4,60.0,30.08,East,80,2.0,5.0,71,0.00,,,0.00,weatherlink.com 1.10,2013-08-04 14:03:00,
2013-08-04 10:18:00,69.7,60.0,30.08,NNE,27,2.0,4.0,72,0.00,,,0.00,weatherlink.com 1.10,2013-08-04 14:18:00,
2013-08-04 10:33:00,70.5,59.0,30.08,East,81,3.0,7.0,67,0.00,,,0.00,weatherlink.com 1.10,2013-08-04 14:33:00,
2013-08-04 10:48:00,71.2,60.0,30.09,South,174,3.0,5.0,67,0.00,,,0.00,weatherlink.com 1.10,2013-08-04 14:48:00,
2013-08-04 11:03:00,72.0,60.0,30.09,ESE,122,2.0,5.0,67,0.00,,,0.00,weatherlink.com 1.10,2013-08-04 15:03:00,
2013-08-04 11:18:00,72.6,60.0,30.09,South,180,3.0,5.0,64,0.00,,,0.00,weatherlink.com 1.10,2013-08-04 15:18:00,
2013-08-04 11:33:00,73.0,58.0,30.09,North,11,2.0,5.0,59,0.00,,,0.00,weatherlink.com 1.10,2013-08-04 15:33:00,
2013-08-04 11:48:00,74.3,59.0,30.09,WNW,302,0.0,5.0,60,0.00,,,0.00,weatherlink.com 1.10,2013-08-04 15:48:00,
2013-08-04 12:04:00,74.5,59.0,30.09,ENE,58,4.0,6.0,59,0.00,,,0.00,weatherlink.com 1.10,2013-08-04 16:04:00,
2013-08-04 12:19:00,74.8,58.0,30.09,North,354,2.0,5.0,57,0.00,,,0.00,weatherlink.com 1.10,2013-08-04 16:19:00,
2013-08-04 12:34:00,75.7,58.0,30.09,SW,231,0.0,4.0,55,0.00,,,0.00,weatherlink.com 1.10,2013-08-04 16:34:00,
2013-08-04 12:49:00,76.3,56.0,30.08,NNE,27,3.0,6.0,50,0.00,,,0.00,weatherlink.com 1.10,2013-08-04 16:49:00,
2013-08-04 13:04:00,76.7,58.0,30.08,West,274,1.0,5.0,52,0.00,,,0.00,weatherlink.com 1.10,2013-08-04 17:04:00,
2013-08-04 13:19:00,76.6,58.0,30.09,NE,44,0.0,5.0,53,0.00,,,0.00,weatherlink.com 1.10,2013-08-04 17:19:00,
2013-08-04 13:34:00,76.8,57.0,30.09,WNW,285,2.0,5.0,51,0.00,,,0.00,weatherlink.com 1.10,2013-08-04 17:34:00,
2013-08-04 13:49:00,77.5,57.0,30.08,SE,142,1.0,6.0,50,0.00,,,0.00,weatherlink.com 1.10,2013-08-04 17:49:00,
2013-08-04 14:04:00,77.2,56.0,30.08,SE,142,3.0,6.0,48,0.00,,,0.00,weatherlink.com 1.10,2013-08-04 18:04:00,
2013-08-04 14:19:00,77.0,58.0,30.08,NNE,14,3.0,5.0,52,0.00,,,0.00,weatherlink.com 1.10,2013-08-04 18:19:00,
2013-08-04 14:34:00,78.1,58.0,30.07,NNW,340,2.0,4.0,51,0.00,,,0.00,weatherlink.com 1.10,2013-08-04 18:34:00,
2013-08-04 14:49:00,78.5,56.0,30.07,SSE,150,1.0,4.0,46,0.00,,,0.00,weatherlink.com 1.10,2013-08-04 18:49:00,
2013-08-04 15:04:00,78.3,58.0,30.07,West,271,1.0,2.0,50,0.00,,,0.00,weatherlink.com 1.10,2013-08-04 19:04:00,
2013-08-04 15:19:00,77.5,57.0,30.06,East,86,1.0,5.0,50,0.00,,,0.00,weatherlink.com 1.10,2013-08-04 19:19:00,
2013-08-04 15:34:00,78.1,57.0,30.06,NNE,15,4.0,5.0,49,0.00,,,0.00,weatherlink.com 1.10,2013-08-04 19:34:00,
2013-08-04 15:49:00,78.5,58.0,30.05,SE,136,2.0,6.0,50,0.00,,,0.00,weatherlink.com 1.10,2013-08-04 19:49:00,
2013-08-04 16:04:00,78.1,60.0,30.05,North,6,1.0,5.0,54,0.00,,,0.00,weatherlink.com 1.10,2013-08-04 20:04:00,
2013-08-04 16:19:00,78.4,56.0,30.05,ESE,120,1.0,5.0,47,0.00,,,0.00,weatherlink.com 1.10,2013-08-04 20:19:00,
2013-08-04 16:34:00,78.7,58.0,30.05,ESE,106,1.0,4.0,49,0.00,,,0.00,weatherlink.com 1.10,2013-08-04 20:34:00,
2013-08-04 16:49:00,77.9,58.0,30.05,NE,48,2.0,3.0,51,0.00,,,0.00,weatherlink.com 1.10,2013-08-04 20:49:00,
2013-08-04 17:04:00,77.6,57.0,30.05,NNE,14,0.0,4.0,50,0.00,,,0.00,weatherlink.com 1.10,2013-08-04 21:04:00,
2013-08-04 17:19:00,77.7,58.0,30.05,SSE,160,1.0,4.0,50,0.00,,,0.00,weatherlink.com 1.10,2013-08-04 21:19:00,
2013-08-04 17:34:00,77.4,59.0,30.04,NE,41,0.0,4.0,54,0.00,,,0.00,weatherlink.com 1.10,2013-08-04 21:34:00,
2013-08-04 17:49:00,77.5,59.0,30.04,WSW,238,0.0,2.0,53,0.00,,,0.00,weatherlink.com 1.10,2013-08-04 21:49:00,
2013-08-04 18:04:00,77.1,60.0,30.04,NE,47,1.0,1.0,55,0.00,,,0.00,weatherlink.com 1.10,2013-08-04 22:04:00,
2013-08-04 18:19:00,77.1,59.0,30.04,NNE,12,0.0,1.0,53,0.00,,,0.00,weatherlink.com 1.10,2013-08-04 22:19:00,
2013-08-04 18:34:00,75.3,57.0,30.04,North,6,0.0,1.0,54,0.00,,,0.00,weatherlink.com 1.10,2013-08-04 22:34:00,
2013-08-04 18:49:00,75.0,60.0,30.04,NNW,340,1.0,1.0,59,0.00,,,0.00,weatherlink.com 1.10,2013-08-04 22:49:00,
2013-08-04 19:04:00,75.2,58.0,30.04,NNW,339,0.0,1.0,56,0.00,,,0.00,weatherlink.com 1.10,2013-08-04 23:04:00,
2013-08-04 19:19:00,73.4,59.0,30.04,NNW,339,0.0,0.0,62,0.00,,,0.00,weatherlink.com 1.10,2013-08-04 23:19:00,
2013-08-04 19:34:00,71.8,60.0,30.04,NNW,339,0.0,0.0,66,0.00,,,0.00,weatherlink.com 1.10,2013-08-04 23:34:00,
2013-08-04 19:50:00,70.9,61.0,30.04,NNW,339,0.0,1.0,72,0.00,,,0.00,weatherlink.com 1.10,2013-08-04 23:50:00,
2013-08-04 20:04:00,69.8,62.0,30.04,NNW,339,0.0,0.0,76,0.00,,,0.00,weatherlink.com 1.10,2013-08-05 00:04:00,
2013-08-04 20:19:00,68.5,61.0,30.04,NNW,339,0.0,0.0,78,0.00,,,0.00,weatherlink.com 1.10,2013-08-05 00:19:00,
2013-08-04 20:34:00,67.3,61.0,30.04,NNW,339,0.0,0.0,80,0.00,,,0.00,weatherlink.com 1.10,2013-08-05 00:34:00,
2013-08-04 20:49:00,66.2,59.0,30.03,NNW,339,0.0,0.0,78,0.00,,,0.00,weatherlink.com 1.10,2013-08-05 00:49:00,
2013-08-04 21:04:00,65.3,58.0,30.04,NNW,339,0.0,0.0,78,0.00,,,0.00,weatherlink.com 1.10,2013-08-05 01:04:00,
2013-08-04 21:19:00,64.8,58.0,30.04,NNW,339,0.0,0.0,79,0.00,,,0.00,weatherlink.com 1.10,2013-08-05 01:19:00,
2013-08-04 21:34:00,64.5,58.0,30.04,NNW,339,0.0,0.0,78,0.00,,,0.00,weatherlink.com 1.10,2013-08-05 01:34:00,
2013-08-04 21:49:00,64.1,57.0,30.04,NNW,338,0.0,0.0,79,0.00,,,0.00,weatherlink.com 1.10,2013-08-05 01:49:00,
2013-08-04 22:04:00,63.4,58.0,30.05,NNW,339,0.0,0.0,82,0.00,,,0.00,weatherlink.com 1.10,2013-08-05 02:04:00,
2013-08-04 22:19:00,62.5,57.0,30.05,NNW,339,0.0,0.0,83,0.00,,,0.00,weatherlink.com 1.10,2013-08-05 02:19:00,
2013-08-04 22:34:00,61.4,57.0,30.05,NNW,339,0.0,0.0,85,0.00,,,0.00,weatherlink.com 1.10,2013-08-05 02:34:00,
2013-08-04 22:49:00,62.8,57.0,30.05,NNW,346,0.0,1.0,81,0.00,,,0.00,weatherlink.com 1.10,2013-08-05 02:49:00,
2013-08-04 23:04:00,63.9,57.0,30.04,NNW,347,0.0,1.0,78,0.00,,,0.00,weatherlink.com 1.10,2013-08-05 03:04:00,
2013-08-04 23:19:00,64.0,57.0,30.05,North,354,0.0,1.0,77,0.00,,,0.00,weatherlink.com 1.10,2013-08-05 03:19:00,
2013-08-04 23:34:00,64.5,56.0,30.05,North,354,0.0,0.0,75,0.00,,,0.00,weatherlink.com 1.10,2013-08-05 03:34:00,
2013-08-04 23:49:00,64.0,57.0,30.05,North,354,0.0,0.0,78,0.00,,,0.00,weatherlink.com 1.10,2013-08-05 03:49:00,